Location: Unspecified
(0.0000°N, 0.0000°E)
Time: 13:13:24
(UTC+00:00)

deb OV3-4 - Pass Details

Date: 18 June 2025
Orbit: 581 x 4212 km, 40.6° (Epoch: 19 July)

Event Time Altitude Azimuth Distance (km) Brightness Sun altitude
Rises 19:39:41 0° 323° (NW) 7,972 ? -22.5°
Reaches altitude 10° 19:45:12 10° 328° (NNW) 7,193 ? -23.7°
Maximum altitude 20:10:26 55° 41° (NE) 4,451 ? -29.3°
Enters shadow 20:19:46 39° 93° (E) 4,571 ? -31.4°
